TimeCDT,TemperatureF,Dew PointF,Humidity,Sea Level PressureIn,VisibilityMPH,Wind Direction,Wind SpeedMPH,Gust SpeedMPH,PrecipitationIn,Events,Conditions,WindDirDegrees,DateUTC
12:56 AM,75.9,73.0,91,30.03,10.0,Calm,Calm,-,N/A,,Mostly Cloudy,0,2013-09-05 05:56:00
1:56 AM,73.9,72.0,93,30.02,9.0,Calm,Calm,-,N/A,,Clear,0,2013-09-05 06:56:00
2:56 AM,73.9,72.0,93,30.03,8.0,Calm,Calm,-,N/A,,Clear,0,2013-09-05 07:56:00
3:56 AM,73.0,72.0,96,30.03,5.0,Calm,Calm,-,N/A,,Clear,0,2013-09-05 08:56:00
4:56 AM,72.0,71.1,97,30.03,3.0,Calm,Calm,-,N/A,,Clear,0,2013-09-05 09:56:00
5:56 AM,72.0,70.0,93,30.05,4.0,Calm,Calm,-,N/A,,Clear,0,2013-09-05 10:56:00
7:42 AM,71.6,71.6,100,30.09,3.0,Calm,Calm,-,N/A,,Clear,0,2013-09-05 12:42:00
7:56 AM,73.9,72.0,93,30.08,4.0,Calm,Calm,-,N/A,,Clear,0,2013-09-05 12:56:00
8:56 AM,81.0,73.9,79,30.08,9.0,Calm,Calm,-,N/A,,Clear,0,2013-09-05 13:56:00
9:56 AM,86.0,73.0,65,30.09,10.0,Calm,Calm,-,N/A,,Clear,0,2013-09-05 14:56:00
10:56 AM,90.0,70.0,52,30.09,10.0,Variable,4.6,-,N/A,,Clear,0,2013-09-05 15:56:00
11:56 AM,91.9,68.0,45,30.08,10.0,Calm,Calm,-,N/A,,Mostly Cloudy,0,2013-09-05 16:56:00
12:56 PM,96.1,64.0,35,30.06,10.0,Variable,3.5,-,N/A,,Mostly Cloudy,0,2013-09-05 17:56:00
1:56 PM,95.0,63.0,34,30.04,10.0,Variable,5.8,-,N/A,,Mostly Cloudy,0,2013-09-05 18:56:00
2:56 PM,96.1,63.0,33,30.01,10.0,NE,4.6,-,N/A,,Mostly Cloudy,50,2013-09-05 19:56:00
3:56 PM,99.0,61.0,28,29.99,10.0,Variable,5.8,-,N/A,,Partly Cloudy,0,2013-09-05 20:56:00
4:56 PM,98.1,61.0,29,29.98,10.0,Variable,5.8,-,N/A,,Mostly Cloudy,0,2013-09-05 21:56:00
5:56 PM,96.1,61.0,31,29.98,10.0,NNE,6.9,-,N/A,,Clear,30,2013-09-05 22:56:00
6:56 PM,93.0,62.1,36,30.00,10.0,Calm,Calm,-,N/A,,Partly Cloudy,0,2013-09-05 23:56:00
7:56 PM,87.1,64.9,48,30.00,10.0,Calm,Calm,-,N/A,,Clear,0,2013-09-06 00:56:00
8:56 PM,82.0,69.1,65,30.04,10.0,Calm,Calm,-,N/A,,Clear,0,2013-09-06 01:56:00
9:56 PM,80.1,72.0,76,30.06,10.0,Variable,3.5,-,N/A,,Clear,0,2013-09-06 02:56:00
10:56 PM,79.0,73.0,82,30.06,10.0,Calm,Calm,-,N/A,,Clear,0,2013-09-06 03:56:00
11:56 PM,75.9,72.0,87,30.06,8.0,Calm,Calm,-,N/A,,Clear,0,2013-09-06 04:56:00